Lapse_Rate
2.8 2.8 2.9 2.9 3.0 2.8 3.6 3.5 4.0 4.2 4.5 4.8 4.8 5.1 5.0 5.0 4.8 4.8 5.1 4.5 5.0 5.6 5.8 5.8 5.8 5.8 5.6 5.5 5.6 5.5 5.4 5.3 5.2 5.3 5.2 5.1 5.2 5.6 5.8 6.0 6.1 6.2 6.4
2.6 2.7 2.4 2.5 2.5 2.7 2.9 3.6 4.3 4.7 5.1 5.1 5.3 5.1 5.5 5.0 4.9 4.7 5.0 5.2 4.6 5.0 5.6 6.1 6.2 6.2 5.9 5.7 5.7 5.7 5.6 5.6 5.5 5.5 5.5 5.3 5.3 5.5 5.7 6.0 6.1 6.4 6.3
2.5 2.5 2.6 2.3 2.6 2.5 2.8 3.3 3.7 4.0 4.9 4.9 5.8 5.5 5.5 5.7 5.4 5.3 5.0 5.2 5.2 4.8 5.2 6.0 6.2 6.2 6.3 6.6 6.5 6.1 5.8 5.6 5.8 5.9 5.9 5.7 5.5 5.6 5.7 5.8 5.9 6.1 6.4
3.1 2.7 3.0 3.0 2.8 3.0 3.5 3.7 4.2 4.9 5.2 5.3 5.8 6.1 5.7 5.1 5.5 5.2 5.0 5.2 5.3 5.5 5.3 5.5 5.9 6.3 6.5 6.6 7.0 6.9 6.6 6.6 6.9 6.2 5.6 5.6 5.8 5.9 5.9 5.9 5.9 6.0 6.1
3.2 3.2 3.4 3.8 3.2 3.3 3.7 4.2 4.3 5.1 5.3 5.4 5.5 5.7 5.7 5.5 5.1 4.7 5.4 5.2 5.1 5.0 5.6 5.5 5.8 5.8 5.8 5.9 6.3 6.8 7.2 6.8 6.3 6.3 6.3 6.3 6.1 6.1 6.2 6.1 6.0 5.9 6.1
3.2 3.5 3.7 4.0 3.9 4.0 4.3 4.0 4.8 4.5 5.4 5.4 5.3 5.8 5.7 5.5 4.8 4.6 5.3 5.1 5.4 5.0 5.2 5.5 5.0 4.7 4.3 4.9 5.5 6.2 6.4 6.8 6.8 6.5 6.4 6.5 6.5 6.5 6.7 6.5 6.3 6.2 6.2
3.5 3.7 4.1 4.2 3.9 4.6 4.8 4.9 5.0 5.3 5.0 4.9 6.0 6.2 5.6 4.7 4.4 3.4 3.9 5.0 5.2 5.1 5.2 5.3 4.9 5.0 4.6 4.0 4.5 5.2 5.9 5.8 6.1 6.3 6.5 6.5 6.1 6.6 6.6 6.8 6.7 6.4 6.6
3.8 3.8 4.0 4.1 4.0 4.3 4.5 4.9 5.3 5.2 5.6 5.0 5.6 4.2 6.1 5.2 3.5 2.7 2.7 3.9 4.1 3.6 3.6 3.5 3.2 2.3 2.5 3.3 3.5 3.1 4.2 5.3 5.6 6.2 6.5 6.7 6.7 6.8 6.8 7.1 6.9 6.9 7.0
3.2 3.5 3.6 3.8 4.0 4.3 4.8 4.8 4.9 6.0 5.7 3.7 4.5 5.8 5.5 5.4 4.0 2.8 2.1 1.6 1.8 1.6 2.1 1.9 1.8 1.5 1.5 1.3 1.5 2.1 2.8 4.2 5.2 6.1 6.6 6.6 6.8 7.0 7.1 7.0 6.9 7.1 7.1
3.1 3.4 3.8 4.5 4.2 4.4 5.1 4.6 4.5 4.6 3.5 3.9 4.1 4.6 5.3 5.7 5.7 6.2 3.2 2.6 2.3 2.3 1.8 1.5 1.8 1.5 1.2 1.4 0.8 1.6 2.0 2.4 4.1 5.4 5.8 6.4 6.9 7.1 7.5 7.8 7.3 7.0 7.3
3.8 4.1 3.2 4.4 3.8 3.7 3.6 4.3 3.5 3.9 4.7 5.1 5.3 4.7 4.9 5.2 5.1 5.7 5.5 5.0 3.1 2.1 2.7 2.1 1.7 1.4 0.9 0.9 1.0 1.3 2.4 3.3 4.4 5.3 5.5 6.1 7.1 7.1 7.2 7.1 7.6 8.1 7.0
3.2 3.5 2.8 4.4 3.8 3.8 3.7 4.7 4.3 4.5 4.8 5.2 5.4 5.9 5.5 5.5 5.6 5.6 5.7 5.3 5.2 3.9 2.2 1.4 0.7 0.5 0.3 0.3 1.0 1.9 2.8 3.6 4.6 5.1 5.8 6.3 6.5 6.8 6.8 6.6 7.1 7.4 8.0
3.5 2.8 3.2 3.9 3.4 3.7 4.0 4.2 4.3 4.0 4.5 4.8 5.4 5.6 6.2 6.4 5.7 5.6 5.6 5.7 5.6 4.8 1.7 0.7 0.8 0.7 -0.0 0.6 1.1 1.7 3.0 4.4 5.0 6.0 6.7 4.9 4.8 5.1 5.4 4.9 5.4 6.3 7.2
3.5 3.3 2.9 3.3 3.6 3.7 3.9 4.0 4.0 4.2 4.9 4.9 4.9 5.0 5.1 5.2 5.5 6.1 6.3 6.8 6.9 6.6 3.8 4.2 1.3 1.4 0.9 0.8 0.8 1.4 2.8 3.6 5.1 5.0 5.1 4.7 4.4 5.2 5.1 4.8 3.9 4.5 7.0
2.1 2.8 3.0 2.8 3.2 3.1 3.1 3.3 3.2 3.0 3.8 3.8 3.4 3.3 3.4 3.5 3.5 4.1 4.7 5.2 6.1 6.2 6.1 5.0 3.7 0.2 0.0 0.2 0.8 1.4 2.2 2.7 3.5 3.9 4.1 4.4 4.3 4.5 4.6 4.9 4.3 4.1 3.7
2.1 2.4 2.3 2.3 1.7 1.8 2.1 2.4 2.5 2.3 2.5 2.0 2.4 2.3 2.2 2.5 3.0 3.2 3.7 3.8 4.4 5.9 6.0 5.0 3.0 0.9 0.2 -0.2 0.3 0.8 1.6 2.4 3.2 3.6 3.5 4.1 4.8 5.0 4.9 4.5 4.2 4.0 4.1
1.8 1.9 1.8 1.5 1.1 0.7 0.7 1.2 1.2 1.3 1.9 1.9 1.9 2.4 2.7 3.0 2.7 3.0 3.1 3.5 3.8 4.9 5.9 2.2 0.5 0.0 -0.1 0.3 -0.0 0.0 0.8 1.8 2.5 3.4 3.4 3.8 5.0 5.2 5.2 4.5 4.8 4.8 5.2
0.8 0.8 0.5 0.1 -0.3 -0.8 -0.7 -0.1 -0.2 -0.0 0.8 1.5 1.6 2.0 2.6 2.1 2.6 2.6 3.0 3.2 3.2 4.1 4.3 4.4 0.8 0.4 0.7 0.6 0.4 -0.0 0.7 1.0 1.9 2.8 3.7 4.0 6.0 5.7 5.3 4.3 4.3 4.0 4.5
-0.4 -0.6 -0.5 -0.7 -1.3 -1.4 -1.2 -1.2 -0.8 -0.1 0.4 0.5 0.5 0.8 0.6 0.9 1.4 2.1 2.4 2.8 3.0 4.0 3.1 2.4 1.2 0.3 -0.0 0.1 0.1 -0.3 -0.1 0.9 1.8 2.9 4.4 5.0 5.7 5.8 5.2 4.4 4.3 4.1 3.7
-1.1 -1.2 -1.1 -1.5 -1.9 -1.7 -1.7 -1.5 -1.3 -0.4 -0.3 -0.2 -0.5 -0.2 -0.0 0.4 0.8 1.3 1.6 2.0 2.6 3.5 3.1 2.6 1.8 0.9 0.8 0.6 0.5 -0.1 -0.2 0.0 0.7 1.8 3.0 4.1 4.9 5.7 5.8 5.3 4.7 3.5 3.5
-1.5 -1.6 -2.0 -2.2 -2.0 -1.6 -1.6 -1.4 -1.1 -0.4 -0.2 -0.3 -0.6 -0.5 -0.3 -0.2 0.3 1.5 2.0 2.6 3.1 3.7 3.7 3.1 2.0 1.6 0.9 0.6 0.7 0.0 -0.1 -0.6 -0.2 1.0 2.1 1.9 2.5 3.3 4.0 5.0 4.0 3.4 3.5
-2.1 -1.9 -2.0 -1.4 -1.2 -0.9 -0.2 -0.3 -0.8 -0.5 -0.9 -0.6 -0.4 -0.3 -0.1 0.2 1.0 1.8 2.4 2.4 4.1 5.1 4.3 3.2 2.5 2.2 2.2 1.6 0.7 0.5 -0.4 0.2 1.5 0.9 2.4 1.9 1.6 3.2 2.9 3.2 3.2 3.7 3.2
-1.9 -2.3 -1.8 -1.3 -1.6 -0.8 0.0 -0.2 -1.0 -1.0 -1.0 -0.8 -1.1 -0.8 0.2 1.0 1.1 1.5 1.9 3.4 4.0 4.1 4.3 4.5 3.8 3.5 3.2 2.4 1.7 1.4 1.4 2.2 2.6 0.6 2.2 3.0 2.4 3.9 2.3 2.1 2.9 3.9 3.3
-2.2 -2.0 -2.3 -2.9 -1.9 -0.7 0.4 0.8 -0.2 -0.8 -0.4 -0.5 -0.8 -0.4 0.3 1.1 1.7 1.7 2.3 2.9 2.9 3.3 3.3 3.5 3.7 3.7 2.9 2.7 2.5 2.5 2.7 1.1 0.5 0.5 1.4 3.5 2.7 3.6 2.3 2.4 2.5 3.9 3.5
-2.7 -2.4 -1.6 -1.5 -1.7 -1.1 0.1 0.8 -0.1 -0.5 -0.2 0.2 0.2 0.5 0.7 1.2 1.9 2.2 2.4 2.9 2.7 2.5 2.9 3.5 3.7 3.6 3.6 3.3 2.3 1.9 2.0 2.7 2.1 2.0 1.1 3.9 2.1 2.2 2.2 2.7 2.4 3.9 3.3
-1.7 -1.4 -1.2 -0.9 -1.3 -1.3 -0.6 0.7 0.8 0.7 1.1 1.3 1.0 1.5 2.1 3.0 5.1 5.0 3.9 3.6 3.6 2.9 2.1 2.1 1.6 1.5 1.6 3.2 2.6 1.9 2.9 3.1 2.4 2.8 2.3 3.8 2.0 2.0 2.7 1.4 1.4 1.6 2.2
Wind_Speed
11 12 12 11 10 9 9 8 8 7 6 4 3 3 3 4 4 4 4 6 4 4 5 5 4 4 5 5 6 4 4 4 4 4 5 5 5 6 7 8 9 11 12
13 12 10 9 9 9 8 7 7 6 5 4 3 3 2 3 4 5 5 6 8 7 7 7 6 6 5 5 6 5 5 4 4 4 4 4 4 4 5 6 7 8 10
15 13 10 9 9 9 9 7 6 5 3 2 2 3 3 3 4 4 5 6 7 10 9 8 7 9 9 8 8 8 9 9 8 8 7 6 6 4 4 5 6 6 7
15 12 9 8 9 8 7 6 5 3 2 2 2 2 3 3 4 5 6 6 6 6 8 10 9 7 8 9 7 7 12 12 12 9 10 8 8 7 5 4 4 5 6
15 13 11 10 11 8 7 5 3 3 3 2 2 2 3 4 5 5 8 7 8 7 6 8 11 10 7 5 4 3 6 15 16 14 13 11 11 10 9 7 6 6 5
15 13 10 10 10 7 5 5 4 3 1 0 1 3 3 4 4 4 4 4 6 7 7 8 5 5 6 5 3 5 4 4 7 16 17 15 13 13 13 12 9 8 6
15 14 10 10 10 7 7 6 3 3 2 0 1 1 0 2 1 2 4 5 7 6 5 5 3 3 4 8 6 2 2 5 3 1 5 17 19 19 15 14 13 11 9
15 14 11 7 10 6 5 6 5 2 1 3 2 2 1 1 1 1 2 2 2 2 0 1 3 6 5 2 2 5 1 1 2 1 2 2 5 16 17 18 18 16 15
12 13 10 7 5 3 4 5 5 4 3 2 3 1 1 2 1 1 2 2 1 0 1 2 2 2 2 3 1 2 2 3 0 0 2 2 3 4 9 17 21 21 19
10 9 8 8 8 6 3 3 4 3 3 4 2 3 2 1 2 2 1 1 2 1 0 1 3 4 3 3 2 2 3 7 3 4 3 3 5 7 9 11 15 21 23
9 10 13 13 11 9 7 4 4 6 5 3 4 2 3 4 4 3 1 1 1 3 4 5 6 6 5 4 3 4 5 7 6 6 3 4 6 6 7 10 17 18 22
5 9 12 12 13 10 8 8 7 6 6 4 3 4 3 2 2 2 1 2 3 2 2 4 7 8 6 4 4 3 7 6 7 4 3 1 4 6 8 10 12 18 22
6 10 9 8 5 8 8 7 5 4 5 5 5 3 3 4 2 2 2 3 3 1 1 2 5 5 5 5 4 4 3 1 5 6 11 11 11 15 14 14 15 10 20
6 8 8 9 9 9 7 7 4 4 5 3 3 2 2 3 2 3 4 5 4 4 2 4 3 9 7 6 6 5 1 7 9 12 10 9 11 12 13 13 20 18 8
6 9 11 8 10 9 9 7 4 3 3 2 2 2 2 2 2 2 2 2 2 3 3 4 3 6 7 6 7 5 4 7 8 9 10 9 10 10 11 10 14 18 23
9 10 10 9 8 8 9 7 5 4 4 2 2 2 1 1 3 3 3 3 3 5 5 1 3 3 7 6 7 6 4 5 6 7 9 9 8 9 10 9 9 12 15
9 10 10 10 9 8 7 8 7 6 5 4 3 2 1 2 2 2 2 2 3 3 5 0 1 2 4 6 8 8 5 3 4 4 6 8 6 9 12 9 9 11 14
8 10 10 10 9 8 8 8 8 5 5 4 3 2 1 2 3 3 2 3 3 3 2 3 1 1 2 5 8 7 4 4 4 4 6 9 8 10 13 9 9 9 10
10 9 9 9 9 8 8 8 8 6 4 4 4 3 3 3 3 3 3 4 3 2 1 1 2 1 1 2 2 3 4 3 3 4 7 9 9 10 9 8 8 9 10
10 9 8 9 8 8 8 7 8 6 6 4 5 3 3 3 3 4 3 3 3 3 1 1 2 2 1 1 2 2 2 1 1 4 6 7 5 8 9 8 8 8 8
9 9 9 9 8 7 5 7 7 5 5 4 3 2 2 2 3 3 2 3 3 3 2 2 2 1 2 2 4 2 2 2 1 2 2 2 1 2 4 7 7 7 7
8 8 8 8 8 5 11 11 8 5 4 2 2 3 3 4 4 5 2 3 4 4 4 1 2 3 3 3 3 4 3 3 3 8 4 3 3 2 3 3 5 6 7
7 8 6 7 7 6 10 10 10 4 3 1 1 2 3 2 4 4 4 4 4 7 6 4 4 4 2 5 5 4 3 3 2 3 2 3 3 3 3 3 5 7 7
7 6 4 6 5 4 7 8 9 4 3 0 1 1 1 2 3 4 4 4 2 2 3 3 4 5 3 3 6 4 5 4 3 2 2 3 3 3 3 3 3 9 7
5 3 4 5 5 4 5 6 7 3 2 1 1 1 1 2 4 3 1 3 3 1 3 7 5 4 4 5 10 6 4 5 2 2 3 2 3 3 3 2 2 9 6
5 5 5 4 5 4 5 5 7 3 1 0 0 0 2 3 5 4 3 2 3 2 1 2 3 6 8 6 4 0 4 5 2 2 4 4 4 3 3 2 4 2 2
Wind_Direction
154 156 154 156 149 146 148 146 148 152 153 154 155 168 163 173 187 193 192 198 203 187 172 166 155 142 131 130 126 128 132 128 124 121 114 107 96 88 81 80 74 68 64
163 164 161 162 156 160 157 157 164 162 156 159 160 181 180 188 199 204 207 205 213 218 213 206 195 182 179 177 171 173 176 177 168 167 152 133 125 116 101 84 71 69 68
172 171 171 173 170 165 156 153 154 158 169 186 201 192 212 218 229 229 225 219 213 222 227 233 229 211 209 211 208 199 199 198 203 202 192 177 171 160 137 121 103 88 72
178 175 178 179 171 169 169 165 163 172 182 210 209 211 233 226 229 230 231 227 227 224 231 238 245 245 225 220 230 233 227 224 223 214 211 202 195 187 179 155 141 124 100
184 180 187 186 175 174 182 174 169 185 195 219 246 250 243 246 237 224 230 229 230 229 227 240 239 240 236 227 219 230 227 221 224 221 221 216 211 202 198 192 189 167 134
188 190 195 189 182 181 184 184 182 188 205 211 265 282 277 270 269 256 249 247 236 231 236 240 241 238 225 214 201 153 126 147 225 225 223 223 221 224 212 199 204 196 169
195 200 203 198 191 197 197 187 173 198 186 128 334 294 312 353 282 297 260 241 243 237 234 239 215 194 137 132 133 134 163 138 142 75 231 237 227 219 221 212 208 205 194
195 200 202 196 192 188 184 184 176 133 138 203 182 176 232 152 140 60 8 278 269 300 40 156 168 173 168 163 130 128 163 253 148 180 227 285 268 240 225 222 217 213 203
187 195 197 181 174 181 194 176 168 169 170 188 224 174 211 248 331 38 11 37 28 73 120 119 91 133 118 112 101 346 21 273 83 313 299 301 278 250 242 237 227 220 212
185 186 157 172 136 133 149 185 182 216 168 178 196 228 236 166 201 257 150 136 58 68 133 137 162 155 135 97 2 313 323 274 226 226 231 265 283 275 274 272 253 233 216
195 170 158 161 148 144 175 199 208 188 208 208 194 148 224 239 242 233 169 280 260 213 211 189 201 216 180 170 242 269 271 281 261 248 253 283 287 290 290 287 271 255 224
165 172 151 164 164 177 178 191 188 207 213 227 195 211 191 199 203 194 243 239 232 208 243 223 203 210 210 199 201 253 285 283 226 242 255 122 95 74 32 7 321 260 230
192 173 166 179 172 181 172 164 178 169 175 187 205 191 226 249 210 224 210 251 264 216 235 214 250 229 218 214 204 224 301 17 175 134 119 97 81 58 36 22 5 304 221
178 149 135 148 154 147 144 142 137 140 150 147 173 216 267 269 263 250 252 267 265 248 207 235 216 218 207 211 193 195 152 89 102 109 107 97 80 73 55 40 47 40 200
151 134 134 128 135 134 131 131 119 114 116 84 58 41 8 19 333 316 287 275 264 272 254 216 225 212 197 176 204 198 185 131 112 112 111 101 102 90 80 64 70 76 92
116 117 120 123 118 112 113 119 122 107 102 94 113 102 86 297 312 315 284 269 267 259 265 167 198 169 182 176 186 188 182 139 131 127 117 111 114 109 95 91 94 105 109
123 123 126 124 118 114 112 111 101 97 100 94 75 58 332 325 315 312 311 279 267 254 268 264 273 167 176 166 161 167 166 147 137 152 131 121 122 116 103 100 114 123 127
115 123 125 118 117 104 97 104 100 88 94 107 95 92 22 350 341 338 333 319 300 298 280 248 170 142 210 192 179 147 154 154 164 161 163 133 136 122 111 110 108 107 113
118 112 110 111 109 109 106 92 94 98 98 92 85 78 48 19 354 339 333 318 315 290 237 183 180 126 154 163 154 113 126 122 123 161 156 132 136 122 120 125 125 121 120
111 108 106 108 107 116 107 107 97 98 88 75 66 64 61 35 358 333 327 326 315 299 263 182 162 157 163 169 151 145 152 125 106 65 91 104 127 129 136 140 133 130 135
113 116 115 107 103 97 104 102 92 87 82 75 68 48 32 357 337 325 310 310 301 288 276 215 168 170 181 171 198 150 136 124 135 187 159 105 109 104 97 150 151 156 160
103 107 105 118 120 111 103 100 94 93 82 69 52 22 4 350 333 331 357 349 301 283 265 239 203 206 199 188 149 167 124 149 204 196 184 172 166 185 149 185 174 190 173
114 101 122 133 113 99 109 109 103 97 96 46 57 39 6 351 332 332 331 10 12 348 326 277 253 237 230 200 157 162 163 164 178 149 149 170 185 195 184 198 212 192 165
130 140 121 90 108 131 131 130 119 124 136 143 68 57 305 329 314 313 316 311 325 328 334 302 275 276 270 241 188 183 171 117 84 123 180 174 167 183 173 200 266 189 175
113 137 143 150 154 158 165 159 149 161 167 126 70 44 326 295 297 302 298 297 302 315 25 34 25 325 288 212 159 122 147 154 150 186 195 161 163 147 169 190 222 188 189
145 155 161 168 173 174 204 184 167 191 176 335 46 46 308 296 276 271 198 253 282 289 352 10 8 25 44 95 115 189 164 171 127 166 190 171 159 161 176 181 186 174 155